| time (UTC) | temp F | wind direction | speed MPH | gust MPH | rain 1hr in | rain 24hr in | rain mn in | humidity % | barometer mb |
| 20260905132008 | 72 | 281 | 3.0 | 10.0 | 0.00 | 0.00 | 0.00 | 57 | 1008.3 |
| 20260905131508 | 72 | 259 | 3.0 | 13.0 | 0.00 | 0.00 | 0.00 | 57 | 1008.6 |
| 20260905131010 | 72 | 293 | 6.0 | 13.0 | 0.00 | 0.00 | 0.00 | 57 | 1008.6 |
| 20260905130507 | 72 | 275 | 3.0 | 10.0 | 0.00 | 0.00 | 0.00 | 57 | 1008.6 |
| 20260905130007 | 72 | 311 | 3.0 | 8.0 | 0.00 | 0.00 | 0.00 | 57 | 1008.5 |
| 20260905125507 | 72 | 287 | 2.0 | 13.0 | 0.00 | 0.00 | 0.00 | 57 | 1008.4 |
| 20260905125007 | 72 | 300 | 6.0 | 13.0 | 0.00 | 0.00 | 0.00 | 57 | 1008.4 |
| 20260905124506 | 72 | 289 | 6.0 | 12.0 | 0.00 | 0.00 | 0.00 | 57 | 1008.4 |
| 20260905124007 | 72 | 280 | 7.0 | 15.0 | 0.00 | 0.00 | 0.00 | 57 | 1008.4 |
| 20260905123507 | 72 | 238 | 6.0 | 14.0 | 0.00 | 0.00 | 0.00 | 57 | 1008.4 |
| 20260905123006 | 72 | 270 | 7.0 | 15.0 | 0.00 | 0.00 | 0.00 | 58 | 1008.4 |
| 20260905122507 | 72 | 257 | 6.0 | 15.0 | 0.00 | 0.00 | 0.00 | 58 | 1008.4 |
| 20260905122005 | 72 | 305 | 6.0 | 18.0 | 0.00 | 0.00 | 0.00 | 57 | 1008.4 |
| 20260905121504 | 72 | 229 | 8.0 | 15.0 | 0.00 | 0.00 | 0.00 | 57 | 1008.5 |
| 20260905121004 | 72 | 226 | 8.0 | 15.0 | 0.00 | 0.00 | 0.00 | 57 | 1008.4 |
| 20260905120508 | 72 | 292 | 8.0 | 15.0 | 0.00 | 0.00 | 0.00 | 58 | 1008.4 |
| 20260905120004 | 73 | 282 | 7.0 | 15.0 | 0.00 | 0.00 | 0.00 | 57 | 1008.4 |
| 20260905115504 | 73 | 257 | 8.0 | 16.0 | 0.00 | 0.00 | 0.00 | 57 | 1008.4 |
| 20260905115007 | 73 | 284 | 6.0 | 16.0 | 0.00 | 0.00 | 0.00 | 57 | 1008.3 |
| 20260905114504 | 73 | 282 | 6.0 | 19.0 | 0.00 | 0.00 | 0.00 | 57 | 1008.4 |
| 20260905114004 | 73 | 275 | 9.0 | 19.0 | 0.00 | 0.00 | 0.00 | 57 | 1008.3 |
| 20260905113504 | 73 | 257 | 8.0 | 18.0 | 0.00 | 0.00 | 0.00 | 56 | 1008.4 |
| 20260905113004 | 73 | 257 | 8.0 | 16.0 | 0.00 | 0.00 | 0.00 | 56 | 1008.4 |
| 20260905112503 | 73 | 264 | 9.0 | 20.0 | 0.00 | 0.00 | 0.00 | 56 | 1008.3 |
| 20260905112004 | 74 | 252 | 9.0 | 21.0 | 0.00 | 0.00 | 0.00 | 55 | 1008.6 |
| 20260905111505 | 74 | 281 | 13.0 | 21.0 | 0.00 | 0.00 | 0.00 | 54 | 1008.6 |
| 20260905111003 | 74 | 284 | 10.0 | 19.0 | 0.00 | 0.00 | 0.00 | 54 | 1008.6 |
| 20260905110502 | 74 | 288 | 10.0 | 20.0 | 0.00 | 0.00 | 0.00 | 53 | 1008.8 |
| 20260905110002 | 75 | 274 | 12.0 | 23.0 | 0.00 | 0.00 | 0.00 | 52 | 1008.7 |
| 20260905105502 | 75 | 295 | 12.0 | 23.0 | 0.00 | 0.00 | 0.00 | 52 | 1008.7 |
| 20260905105002 | 75 | 240 | 10.0 | 26.0 | 0.00 | 0.00 | 0.00 | 52 | 1008.7 |
| 20260905104501 | 75 | 280 | 12.0 | 26.0 | 0.00 | 0.00 | 0.00 | 52 | 1008.8 |
| 20260905104004 | 74 | 279 | 10.0 | 22.0 | 0.00 | 0.00 | 0.00 | 53 | 1008.8 |
| 20260905103505 | 75 | 274 | 10.0 | 26.0 | 0.00 | 0.00 | 0.00 | 53 | 1008.9 |
| 20260905103006 | 75 | 264 | 10.0 | 26.0 | 0.00 | 0.00 | 0.00 | 53 | 1008.8 |
| 20260905102501 | 75 | 263 | 11.0 | 20.0 | 0.00 | 0.00 | 0.00 | 52 | 1008.8 |
| 20260905102001 | 75 | 249 | 8.0 | 20.0 | 0.00 | 0.00 | 0.00 | 53 | 1008.9 |
| 20260905101607 | 75 | 254 | 9.0 | 22.0 | 0.00 | 0.00 | 0.00 | 53 | 1009.0 |
| 20260905101502 | 75 | 236 | 10.0 | 22.0 | 0.00 | 0.00 | 0.00 | 52 | 1009.0 |
| 20260905101100 | 74 | 270 | 14.0 | 22.0 | 0.00 | 0.00 | 0.00 | 53 | 1009.1 |
| 20260905100600 | 75 | 262 | 11.0 | 28.0 | 0.00 | 0.00 | 0.00 | 54 | 1009.6 |
| 20260905100201 | 75 | 287 | 16.0 | 28.0 | 0.00 | 0.00 | 0.00 | 53 | 1010.1 |
| 20260905095559 | 75 | 248 | 10.0 | 25.0 | 0.00 | 0.00 | 0.00 | 52 | 1010.2 |
| 20260905095059 | 75 | 289 | 11.0 | 25.0 | 0.00 | 0.00 | 0.00 | 52 | 1010.2 |
| 20260905094559 | 75 | 238 | 13.0 | 25.0 | 0.00 | 0.00 | 0.00 | 54 | 1010.5 |
| 20260905094058 | 74 | 289 | 7.0 | 17.0 | 0.00 | 0.00 | 0.00 | 56 | 1010.6 |
| 20260905093558 | 74 | 263 | 9.0 | 17.0 | 0.00 | 0.00 | 0.00 | 56 | 1010.6 |
| 20260905093059 | 74 | 285 | 9.0 | 17.0 | 0.00 | 0.00 | 0.00 | 56 | 1010.8 |
| 20260905092601 | 74 | 237 | 8.0 | 18.0 | 0.00 | 0.00 | 0.00 | 57 | 1010.9 |
| 20260905092058 | 74 | 293 | 10.0 | 18.0 | 0.00 | 0.00 | 0.00 | 57 | 1010.7 |
| 20260905091606 | 74 | 227 | 9.0 | 17.0 | 0.00 | 0.00 | 0.00 | 58 | 1010.8 |
| 20260905091100 | 74 | 267 | 7.0 | 24.0 | 0.00 | 0.00 | 0.00 | 58 | 1010.5 |
| 20260905090601 | 74 | 287 | 8.0 | 26.0 | 0.00 | 0.00 | 0.00 | 58 | 1010.4 |
| 20260905090057 | 75 | 256 | 10.0 | 26.0 | 0.00 | 0.00 | 0.00 | 57 | 1010.6 |
| 20260905085557 | 74 | 252 | 11.0 | 19.0 | 0.00 | 0.00 | 0.00 | 56 | 1010.4 |
| 20260905085057 | 74 | 287 | 8.0 | 19.0 | 0.00 | 0.00 | 0.00 | 57 | 1010.5 |
| 20260905084600 | 75 | 248 | 9.0 | 18.0 | 0.00 | 0.00 | 0.00 | 56 | 1010.6 |
| 20260905084057 | 74 | 259 | 7.0 | 21.0 | 0.00 | 0.00 | 0.00 | 58 | 1010.5 |
| 20260905083557 | 75 | 276 | 10.0 | 21.0 | 0.00 | 0.00 | 0.00 | 56 | 1010.5 |
| 20260905083109 | 75 | 285 | 4.0 | 13.0 | 0.00 | 0.00 | 0.00 | 54 | 1010.3 |
| 20260905082556 | 76 | 249 | 5.0 | 12.0 | 0.00 | 0.00 | 0.00 | 53 | 1010.0 |
| 20260905082056 | 76 | 159 | 5.0 | 14.0 | 0.00 | 0.00 | 0.00 | 53 | 1009.8 |
| 20260905081555 | 77 | 225 | 3.0 | 14.0 | 0.00 | 0.00 | 0.00 | 51 | 1009.7 |
| 20260905081055 | 77 | 200 | 4.0 | 14.0 | 0.00 | 0.00 | 0.00 | 50 | 1009.9 |
| 20260905080555 | 77 | 85 | 5.0 | 20.0 | 0.00 | 0.00 | 0.00 | 50 | 1009.8 |
| 20260905080055 | 77 | 272 | 7.0 | 20.0 | 0.00 | 0.00 | 0.00 | 49 | 1009.7 |
| 20260905075556 | 77 | 186 | 8.0 | 20.0 | 0.00 | 0.00 | 0.00 | 49 | 1009.7 |
| 20260905075054 | 78 | 150 | 10.0 | 18.0 | 0.00 | 0.00 | 0.00 | 47 | 1009.6 |
| 20260905074555 | 80 | 236 | 6.0 | 23.0 | 0.00 | 0.00 | 0.00 | 45 | 1009.4 |
| 20260905074057 | 82 | 165 | 8.0 | 21.0 | 0.00 | 0.00 | 0.00 | 41 | 1009.3 |
| 20260905073554 | 84 | 224 | 4.0 | 13.0 | 0.00 | 0.00 | 0.00 | 34 | 1008.4 |
| 20260905073057 | 84 | 275 | 7.0 | 13.0 | 0.00 | 0.00 | 0.00 | 33 | 1007.7 |
| 20260905072558 | 84 | 274 | 6.0 | 15.0 | 0.00 | 0.00 | 0.00 | 33 | 1007.6 |
| 20260905072057 | 84 | 264 | 5.0 | 18.0 | 0.00 | 0.00 | 0.00 | 33 | 1007.5 |
| 20260905071555 | 85 | 246 | 8.0 | 18.0 | 0.00 | 0.00 | 0.00 | 33 | 1007.4 |
| 20260905071053 | 85 | 275 | 8.0 | 22.0 | 0.00 | 0.00 | 0.00 | 32 | 1007.3 |
| 20260905070553 | 85 | 268 | 11.0 | 22.0 | 0.00 | 0.00 | 0.00 | 32 | 1007.3 |
| 20260905070054 | 85 | 286 | 9.0 | 16.0 | 0.00 | 0.00 | 0.00 | 32 | 1007.2 |
| 20260905065552 | 85 | 252 | 7.0 | 16.0 | 0.00 | 0.00 | 0.00 | 32 | 1007.1 |
| 20260905065052 | 86 | 300 | 5.0 | 19.0 | 0.00 | 0.00 | 0.00 | 32 | 1007.0 |
| 20260905064611 | 86 | 262 | 8.0 | 23.0 | 0.00 | 0.00 | 0.00 | 32 | 1007.0 |
| 20260905064052 | 86 | 249 | 13.0 | 27.0 | 0.00 | 0.00 | 0.00 | 31 | 1006.8 |
| 20260905063551 | 86 | 261 | 11.0 | 27.0 | 0.00 | 0.00 | 0.00 | 31 | 1006.6 |
| 20260905063054 | 86 | 302 | 11.0 | 30.0 | 0.00 | 0.00 | 0.00 | 31 | 1006.6 |
| 20260905062551 | 86 | 247 | 15.0 | 30.0 | 0.00 | 0.00 | 0.00 | 31 | 1006.6 |
| 20260905062051 | 86 | 242 | 14.0 | 30.0 | 0.00 | 0.00 | 0.00 | 31 | 1006.6 |
| 20260905061551 | 86 | 284 | 11.0 | 30.0 | 0.00 | 0.00 | 0.00 | 31 | 1006.7 |
| 20260905061050 | 86 | 263 | 17.0 | 30.0 | 0.00 | 0.00 | 0.00 | 31 | 1006.6 |
| 20260905060553 | 86 | 250 | 12.0 | 24.0 | 0.00 | 0.00 | 0.00 | 31 | 1006.6 |
| 20260905060051 | 87 | 273 | 11.0 | 24.0 | 0.00 | 0.00 | 0.00 | 31 | 1006.7 |
| 20260905055551 | 87 | 220 | 10.0 | 18.0 | 0.00 | 0.00 | 0.00 | 31 | 1006.5 |
| 20260905055050 | 87 | 268 | 11.0 | 26.0 | 0.00 | 0.00 | 0.00 | 31 | 1006.4 |
| 20260905054644 | 86 | 217 | 13.0 | 26.0 | 0.00 | 0.00 | 0.00 | 31 | 1006.5 |
| 20260905054050 | 87 | 261 | 12.0 | 25.0 | 0.00 | 0.00 | 0.00 | 30 | 1006.5 |
| 20260905053550 | 87 | 297 | 12.0 | 26.0 | 0.00 | 0.00 | 0.00 | 30 | 1006.5 |
| 20260905053050 | 87 | 257 | 14.0 | 26.0 | 0.00 | 0.00 | 0.00 | 30 | 1006.5 |
| 20260905052549 | 87 | 287 | 12.0 | 23.0 | 0.00 | 0.00 | 0.00 | 30 | 1006.6 |
| 20260905052049 | 87 | 241 | 11.0 | 23.0 | 0.00 | 0.00 | 0.00 | 30 | 1006.6 |
| 20260905051548 | 87 | 309 | 11.0 | 19.0 | 0.00 | 0.00 | 0.00 | 30 | 1006.7 |
| 20260905051047 | 87 | 272 | 9.0 | 28.0 | 0.00 | 0.00 | 0.00 | 30 | 1006.7 |
| 20260905050547 | 87 | 242 | 10.0 | 28.0 | 0.00 | 0.00 | 0.00 | 30 | 1006.8 |
| 20260905050047 | 87 | 265 | 10.0 | 26.0 | 0.00 | 0.00 | 0.00 | 30 | 1006.9 |
| 20260905045546 | 87 | 253 | 12.0 | 26.0 | 0.00 | 0.00 | 0.00 | 30 | 1006.8 |
| 20260905045046 | 87 | 241 | 11.0 | 26.0 | 0.00 | 0.00 | 0.00 | 30 | 1007.0 |
| 20260905044602 | 87 | 259 | 11.0 | 26.0 | 0.00 | 0.00 | 0.00 | 30 | 1006.9 |
| 20260905044045 | 87 | 260 | 15.0 | 26.0 | 0.00 | 0.00 | 0.00 | 29 | 1007.0 |
| 20260905043545 | 87 | 234 | 13.0 | 25.0 | 0.00 | 0.00 | 0.00 | 30 | 1007.1 |
| 20260905043044 | 88 | 250 | 8.0 | 24.0 | 0.00 | 0.00 | 0.00 | 30 | 1007.1 |
| 20260905042543 | 87 | 256 | 14.0 | 24.0 | 0.00 | 0.00 | 0.00 | 29 | 1007.3 |
| 20260905042043 | 88 | 272 | 11.0 | 25.0 | 0.00 | 0.00 | 0.00 | 30 | 1007.4 |
| 20260905041542 | 87 | 260 | 10.0 | 25.0 | 0.00 | 0.00 | 0.00 | 30 | 1007.5 |
| 20260905041041 | 88 | 265 | 11.0 | 22.0 | 0.00 | 0.00 | 0.00 | 30 | 1007.5 |
| 20260905040542 | 88 | 247 | 8.0 | 20.0 | 0.00 | 0.00 | 0.00 | 31 | 1007.7 |
| 20260905040040 | 88 | 227 | 8.0 | 20.0 | 0.00 | 0.00 | 0.00 | 31 | 1007.8 |
| 20260905035538 | 87 | 238 | 5.0 | 18.0 | 0.00 | 0.00 | 0.00 | 33 | 1007.8 |
| 20260905035037 | 86 | 248 | 10.0 | 23.0 | 0.00 | 0.00 | 0.00 | 33 | 1007.9 |
| 20260905034536 | 86 | 292 | 11.0 | 23.0 | 0.00 | 0.00 | 0.00 | 34 | 1008.2 |
| 20260905034035 | 85 | 236 | 8.0 | 14.0 | 0.00 | 0.00 | 0.00 | 36 | 1008.2 |
| 20260905033533 | 85 | 284 | 4.0 | 13.0 | 0.00 | 0.00 | 0.00 | 37 | 1008.4 |
| 20260905033038 | 84 | 275 | 7.0 | 14.0 | 0.00 | 0.00 | 0.00 | 36 | 1008.5 |
| 20260905032531 | 84 | 248 | 5.0 | 14.0 | 0.00 | 0.00 | 0.00 | 37 | 1008.8 |
| 20260905032029 | 84 | 257 | 4.0 | 12.0 | 0.00 | 0.00 | 0.00 | 39 | 1008.9 |
| 20260905031530 | 84 | 338 | 2.0 | 10.0 | 0.00 | 0.00 | 0.00 | 40 | 1009.0 |
| 20260905031028 | 84 | 290 | 3.0 | 10.0 | 0.00 | 0.00 | 0.00 | 39 | 1009.2 |
| 20260905030526 | 83 | 257 | 2.0 | 11.0 | 0.00 | 0.00 | 0.00 | 38 | 1009.3 |
| 20260905030032 | 83 | 331 | 4.0 | 11.0 | 0.00 | 0.00 | 0.00 | 38 | 1009.5 |
| 20260905025523 | 83 | 355 | 4.0 | 12.0 | 0.00 | 0.00 | 0.00 | 38 | 1009.7 |
| 20260905025022 | 83 | 267 | 5.0 | 12.0 | 0.00 | 0.00 | 0.00 | 37 | 1009.9 |
| 20260905024520 | 83 | 351 | 2.0 | 11.0 | 0.00 | 0.00 | 0.00 | 38 | 1010.1 |
| 20260905024019 | 82 | 299 | 4.0 | 12.0 | 0.00 | 0.00 | 0.00 | 38 | 1010.3 |
| 20260905023518 | 81 | 321 | 5.0 | 16.0 | 0.00 | 0.00 | 0.00 | 38 | 1010.4 |
| 20260905023017 | 82 | 292 | 6.0 | 16.0 | 0.00 | 0.00 | 0.00 | 37 | 1010.5 |
| 20260905022515 | 82 | 304 | 4.0 | 11.0 | 0.00 | 0.00 | 0.00 | 37 | 1010.7 |
| 20260905022015 | 82 | 311 | 6.0 | 10.0 | 0.00 | 0.00 | 0.00 | 37 | 1010.9 |
| 20260905021512 | 81 | 300 | 5.0 | 14.0 | 0.00 | 0.00 | 0.00 | 37 | 1011.0 |
| 20260905021011 | 81 | 308 | 6.0 | 14.0 | 0.00 | 0.00 | 0.00 | 37 | 1011.2 |
| 20260905020510 | 81 | 317 | 7.0 | 15.0 | 0.00 | 0.00 | 0.00 | 37 | 1011.3 |
| 20260905020010 | 81 | 277 | 8.0 | 18.0 | 0.00 | 0.00 | 0.00 | 37 | 1011.3 |
| 20260905015511 | 81 | 280 | 6.0 | 13.0 | 0.00 | 0.00 | 0.00 | 36 | 1011.5 |
| 20260905015008 | 81 | 262 | 5.0 | 13.0 | 0.00 | 0.00 | 0.00 | 37 | 1011.5 |
| 20260905014506 | 81 | 323 | 5.0 | 13.0 | 0.00 | 0.00 | 0.00 | 37 | 1011.7 |
| 20260905014006 | 81 | 263 | 4.0 | 13.0 | 0.00 | 0.00 | 0.00 | 38 | 1011.8 |
| 20260905013504 | 80 | 288 | 5.0 | 12.0 | 0.00 | 0.00 | 0.00 | 38 | 1011.8 |
| 20260905013004 | 80 | 304 | 5.0 | 13.0 | 0.00 | 0.00 | 0.00 | 38 | 1012.0 |
| 20260905012604 | 80 | 261 | 6.0 | 13.0 | 0.00 | 0.00 | 0.00 | 38 | 1012.0 |
| 20260905012100 | 80 | 252 | 6.0 | 13.0 | 0.00 | 0.00 | 0.00 | 38 | 1012.2 |
| 20260905011558 | 79 | 275 | 5.0 | 17.0 | 0.00 | 0.00 | 0.00 | 38 | 1012.4 |
| 20260905011100 | 79 | 305 | 6.0 | 17.0 | 0.00 | 0.00 | 0.00 | 37 | 1012.5 |
| 20260905010555 | 79 | 213 | 4.0 | 9.0 | 0.00 | 0.00 | 0.00 | 39 | 1012.7 |
| 20260905005552 | 77 | 297 | 7.0 | 14.0 | 0.00 | 0.00 | 0.00 | 40 | 1013.1 |
| 20260905005052 | 77 | 267 | 6.0 | 12.0 | 0.00 | 0.00 | 0.00 | 40 | 1013.1 |
| 20260905004550 | 77 | 273 | 6.0 | 11.0 | 0.00 | 0.00 | 0.00 | 40 | 1013.3 |
| 20260905004048 | 76 | 238 | 6.0 | 13.0 | 0.00 | 0.00 | 0.00 | 41 | 1013.5 |
| 20260905003547 | 76 | 258 | 4.0 | 14.0 | 0.00 | 0.00 | 0.00 | 41 | 1013.7 |
| 20260905003046 | 76 | 297 | 6.0 | 10.0 | 0.00 | 0.00 | 0.00 | 41 | 1013.8 |
| 20260905002545 | 76 | 279 | 5.0 | 10.0 | 0.00 | 0.00 | 0.00 | 42 | 1013.9 |
| 20260905002043 | 75 | 274 | 4.0 | 13.0 | 0.00 | 0.00 | 0.00 | 42 | 1014.0 |
| 20260905001542 | 75 | 264 | 5.0 | 11.0 | 0.00 | 0.00 | 0.00 | 41 | 1014.0 |
| 20260905001041 | 75 | 259 | 5.0 | 11.0 | 0.00 | 0.00 | 0.00 | 41 | 1014.1 |
| 20260905000542 | 75 | 303 | 4.0 | 13.0 | 0.00 | 0.00 | 0.00 | 41 | 1014.3 |
| 20260905000037 | 75 | 232 | 5.0 | 13.0 | 0.00 | 0.00 | 0.00 | 40 | 1014.4 |
| 20260904235535 | 74 | 250 | 3.0 | 10.0 | 0.00 | 0.00 | 0.00 | 42 | 1014.4 |
| 20260904235034 | 74 | 264 | 5.0 | 10.0 | 0.00 | 0.00 | 0.00 | 43 | 1014.5 |
| 20260904234533 | 74 | 275 | 4.0 | 13.0 | 0.00 | 0.00 | 0.00 | 43 | 1014.7 |
| 20260904234036 | 73 | 255 | 6.0 | 13.0 | 0.00 | 0.00 | 0.00 | 43 | 1014.8 |
| 20260904233530 | 73 | 227 | 7.0 | 13.0 | 0.00 | 0.00 | 0.00 | 44 | 1014.9 |
| 20260904233029 | 73 | 284 | 3.0 | 8.0 | 0.00 | 0.00 | 0.00 | 48 | 1014.9 |
| 20260904232528 | 72 | 267 | 4.0 | 8.0 | 0.00 | 0.00 | 0.00 | 47 | 1015.0 |
| 20260904232025 | 71 | 273 | 3.0 | 8.0 | 0.00 | 0.00 | 0.00 | 49 | 1015.1 |
| 20260904231524 | 71 | 319 | 3.0 | 9.0 | 0.00 | 0.00 | 0.00 | 51 | 1015.2 |
| 20260904231023 | 70 | 257 | 4.0 | 9.0 | 0.00 | 0.00 | 0.00 | 52 | 1015.3 |
| 20260904230524 | 70 | 291 | 3.0 | 9.0 | 0.00 | 0.00 | 0.00 | 52 | 1015.4 |
| 20260904230020 | 70 | 238 | 4.0 | 9.0 | 0.00 | 0.00 | 0.00 | 51 | 1015.5 |
| 20260904225521 | 70 | 302 | 4.0 | 9.0 | 0.00 | 0.00 | 0.00 | 51 | 1015.5 |
| 20260904225019 | 70 | 290 | 2.0 | 9.0 | 0.00 | 0.00 | 0.00 | 51 | 1015.6 |
| 20260904224520 | 69 | 281 | 3.0 | 9.0 | 0.00 | 0.00 | 0.00 | 50 | 1015.6 |
| 20260904224018 | 69 | 304 | 4.0 | 9.0 | 0.00 | 0.00 | 0.00 | 51 | 1015.7 |
| 20260904223516 | 69 | 279 | 3.0 | 7.0 | 0.00 | 0.00 | 0.00 | 51 | 1015.7 |
| 20260904223016 | 69 | 275 | 4.0 | 7.0 | 0.00 | 0.00 | 0.00 | 51 | 1015.7 |
| 20260904222515 | 69 | 297 | 2.0 | 8.0 | 0.00 | 0.00 | 0.00 | 52 | 1015.7 |
| 20260904222015 | 69 | 246 | 3.0 | 8.0 | 0.00 | 0.00 | 0.00 | 52 | 1015.7 |
| 20260904221514 | 68 | 276 | 0.0 | 6.0 | 0.00 | 0.00 | 0.00 | 53 | 1015.7 |
| 20260904221013 | 68 | 319 | 1.0 | 6.0 | 0.00 | 0.00 | 0.00 | 54 | 1015.7 |
| 20260904220512 | 68 | 292 | 2.0 | 5.0 | 0.00 | 0.00 | 0.00 | 54 | 1015.7 |
| 20260904220011 | 68 | 296 | 2.0 | 6.0 | 0.00 | 0.00 | 0.00 | 54 | 1015.9 |
| 20260904215510 | 67 | 271 | 2.0 | 6.0 | 0.00 | 0.00 | 0.00 | 54 | 1015.9 |
| 20260904215010 | 67 | 282 | 2.0 | 7.0 | 0.00 | 0.00 | 0.00 | 54 | 1016.0 |
| 20260904214510 | 67 | 263 | 3.0 | 8.0 | 0.00 | 0.00 | 0.00 | 54 | 1016.0 |
| 20260904214010 | 67 | 298 | 4.0 | 11.0 | 0.00 | 0.00 | 0.00 | 52 | 1016.0 |
| 20260904213510 | 67 | 288 | 4.0 | 11.0 | 0.00 | 0.00 | 0.00 | 52 | 1016.0 |
| 20260904213009 | 67 | 279 | 4.0 | 10.0 | 0.00 | 0.00 | 0.00 | 52 | 1015.9 |
| 20260904212509 | 67 | 307 | 3.0 | 11.0 | 0.00 | 0.00 | 0.00 | 52 | 1015.7 |
| 20260904212007 | 67 | 290 | 3.0 | 11.0 | 0.00 | 0.00 | 0.00 | 52 | 1015.7 |
| 20260904211508 | 67 | 286 | 3.0 | 9.0 | 0.00 | 0.00 | 0.00 | 52 | 1015.8 |
| 20260904211008 | 66 | 269 | 4.0 | 11.0 | 0.00 | 0.00 | 0.00 | 52 | 1015.8 |
| 20260904210505 | 66 | 251 | 4.0 | 10.0 | 0.00 | 0.00 | 0.00 | 53 | 1015.7 |
| 20260904210010 | 66 | 265 | 4.0 | 10.0 | 0.00 | 0.00 | 0.00 | 53 | 1015.7 |
| 20260904205504 | 66 | 275 | 5.0 | 10.0 | 0.00 | 0.00 | 0.00 | 53 | 1015.6 |
| 20260904205002 | 66 | 232 | 5.0 | 10.0 | 0.00 | 0.00 | 0.00 | 53 | 1015.7 |
| 20260904204501 | 66 | 279 | 6.0 | 11.0 | 0.00 | 0.00 | 0.00 | 53 | 1015.7 |
| 20260904204100 | 65 | 238 | 4.0 | 12.0 | 0.00 | 0.00 | 0.00 | 54 | 1015.6 |
| 20260904203559 | 65 | 296 | 6.0 | 12.0 | 0.00 | 0.00 | 0.00 | 54 | 1015.5 |
| 20260904203100 | 65 | 255 | 5.0 | 9.0 | 0.00 | 0.00 | 0.00 | 56 | 1015.6 |
| 20260904202558 | 65 | 297 | 3.0 | 10.0 | 0.00 | 0.00 | 0.00 | 56 | 1015.5 |
| 20260904202057 | 65 | 280 | 5.0 | 11.0 | 0.00 | 0.00 | 0.00 | 56 | 1015.5 |
| 20260904201558 | 65 | 263 | 6.0 | 11.0 | 0.00 | 0.00 | 0.00 | 56 | 1015.6 |
| 20260904201055 | 64 | 250 | 6.0 | 10.0 | 0.00 | 0.00 | 0.00 | 56 | 1015.6 |
| 20260904200554 | 64 | 280 | 5.0 | 10.0 | 0.00 | 0.00 | 0.00 | 57 | 1015.7 |
| 20260904200110 | 64 | 259 | 6.0 | 11.0 | 0.00 | 0.00 | 0.00 | 58 | 1015.6 |
| 20260904195555 | 63 | 274 | 5.0 | 11.0 | 0.00 | 0.00 | 0.00 | 60 | 1015.8 |
| 20260904195049 | 62 | 261 | 5.0 | 9.0 | 0.00 | 0.00 | 0.00 | 61 | 1015.8 |
| 20260904194551 | 62 | 277 | 4.0 | 9.0 | 0.00 | 0.00 | 0.00 | 63 | 1015.9 |
| 20260904194048 | 61 | 255 | 4.0 | 8.0 | 0.00 | 0.00 | 0.00 | 64 | 1015.9 |
| 20260904193548 | 61 | 273 | 4.0 | 8.0 | 0.00 | 0.00 | 0.00 | 65 | 1016.0 |
| 20260904193048 | 60 | 281 | 2.0 | 8.0 | 0.00 | 0.00 | 0.00 | 66 | 1016.0 |
| 20260904192548 | 60 | 289 | 3.0 | 8.0 | 0.00 | 0.00 | 0.00 | 66 | 1016.0 |
| 20260904192047 | 60 | 294 | 2.0 | 6.0 | 0.00 | 0.00 | 0.00 | 65 | 1016.0 |
| 20260904191547 | 61 | 287 | 3.0 | 6.0 | 0.00 | 0.00 | 0.00 | 65 | 1016.0 |
| 20260904191047 | 60 | 285 | 2.0 | 5.0 | 0.00 | 0.00 | 0.00 | 66 | 1016.1 |
| 20260904190546 | 60 | 289 | 2.0 | 4.0 | 0.00 | 0.00 | 0.00 | 66 | 1016.1 |
| 20260904190050 | 60 | 268 | 2.0 | 4.0 | 0.00 | 0.00 | 0.00 | 66 | 1016.0 |
| 20260904185546 | 60 | 279 | 2.0 | 4.0 | 0.00 | 0.00 | 0.00 | 66 | 1015.9 |
| 20260904185046 | 60 | 275 | 2.0 | 7.0 | 0.00 | 0.00 | 0.00 | 66 | 1015.8 |
| 20260904184545 | 60 | 284 | 2.0 | 8.0 | 0.00 | 0.00 | 0.00 | 66 | 1015.8 |
| 20260904184045 | 60 | 279 | 3.0 | 10.0 | 0.00 | 0.00 | 0.00 | 66 | 1015.8 |
| 20260904183547 | 60 | 281 | 3.0 | 10.0 | 0.00 | 0.00 | 0.00 | 66 | 1015.8 |
| 20260904183044 | 60 | 286 | 2.0 | 9.0 | 0.00 | 0.00 | 0.00 | 66 | 1015.7 |
| 20260904182548 | 60 | 269 | 4.0 | 10.0 | 0.00 | 0.00 | 0.00 | 66 | 1015.7 |
| 20260904182043 | 60 | 326 | 5.0 | 10.0 | 0.00 | 0.00 | 0.00 | 66 | 1015.7 |
| 20260904181547 | 60 | 315 | 5.0 | 10.0 | 0.00 | 0.00 | 0.00 | 66 | 1015.7 |
| 20260904181043 | 60 | 254 | 5.0 | 10.0 | 0.00 | 0.00 | 0.00 | 66 | 1015.6 |
| 20260904180541 | 60 | 290 | 6.0 | 10.0 | 0.00 | 0.00 | 0.00 | 66 | 1015.7 |
| 20260904180047 | 60 | 304 | 3.0 | 9.0 | 0.00 | 0.00 | 0.00 | 67 | 1015.8 |
| 20260904175540 | 59 | 311 | 3.0 | 8.0 | 0.00 | 0.00 | 0.00 | 67 | 1015.8 |
| 20260904175040 | 59 | 267 | 3.0 | 8.0 | 0.00 | 0.00 | 0.00 | 67 | 1015.8 |
| 20260904174541 | 59 | 262 | 3.0 | 8.0 | 0.00 | 0.00 | 0.00 | 67 | 1015.8 |
| 20260904174040 | 59 | 267 | 3.0 | 9.0 | 0.00 | 0.00 | 0.00 | 67 | 1015.9 |
| 20260904173539 | 59 | 284 | 4.0 | 9.0 | 0.00 | 0.00 | 0.00 | 67 | 1015.8 |
| 20260904173054 | 59 | 283 | 3.0 | 7.0 | 0.00 | 0.00 | 0.00 | 67 | 1015.9 |
| 20260904172538 | 59 | 266 | 4.0 | 10.0 | 0.00 | 0.00 | 0.00 | 67 | 1016.0 |
| 20260904172038 | 59 | 281 | 3.0 | 10.0 | 0.00 | 0.00 | 0.00 | 67 | 1015.9 |
| 20260904171544 | 59 | 288 | 4.0 | 10.0 | 0.00 | 0.00 | 0.00 | 67 | 1015.8 |
| 20260904171036 | 59 | 275 | 3.0 | 10.0 | 0.00 | 0.00 | 0.00 | 67 | 1015.9 |
| 20260904170535 | 59 | 315 | 3.0 | 8.0 | 0.00 | 0.00 | 0.00 | 67 | 1015.9 |
| 20260904170039 | 59 | 305 | 3.0 | 8.0 | 0.00 | 0.00 | 0.00 | 66 | 1016.0 |
| 20260904165538 | 59 | 273 | 3.0 | 8.0 | 0.00 | 0.00 | 0.00 | 66 | 1016.1 |
| 20260904165033 | 60 | 324 | 4.0 | 8.0 | 0.00 | 0.00 | 0.00 | 65 | 1016.2 |
| 20260904164532 | 60 | 300 | 4.0 | 7.0 | 0.00 | 0.00 | 0.00 | 65 | 1016.2 |
| 20260904164031 | 60 | 293 | 4.0 | 6.0 | 0.00 | 0.00 | 0.00 | 64 | 1016.3 |
| 20260904163530 | 60 | 323 | 3.0 | 7.0 | 0.00 | 0.00 | 0.00 | 64 | 1016.3 |
| 20260904163030 | 60 | 294 | 2.0 | 4.0 | 0.00 | 0.00 | 0.00 | 63 | 1016.5 |
| 20260904162529 | 61 | 301 | 2.0 | 5.0 | 0.00 | 0.00 | 0.00 | 62 | 1016.5 |
| 20260904162027 | 61 | 310 | 3.0 | 7.0 | 0.00 | 0.00 | 0.00 | 62 | 1016.6 |
| 20260904161526 | 61 | 266 | 2.0 | 7.0 | 0.00 | 0.00 | 0.00 | 62 | 1016.8 |
| 20260904161028 | 61 | 277 | 3.0 | 5.0 | 0.00 | 0.00 | 0.00 | 61 | 1016.8 |
| 20260904160526 | 61 | 285 | 2.0 | 5.0 | 0.00 | 0.00 | 0.00 | 61 | 1016.9 |
| 20260904160028 | 62 | 327 | 3.0 | 8.0 | 0.00 | 0.00 | 0.00 | 61 | 1016.9 |
| 20260904155523 | 61 | 295 | 4.0 | 8.0 | 0.00 | 0.00 | 0.00 | 61 | 1017.1 |
| 20260904155022 | 61 | 307 | 3.0 | 7.0 | 0.00 | 0.00 | 0.00 | 62 | 1017.1 |
| 20260904154521 | 61 | 306 | 3.0 | 7.0 | 0.00 | 0.00 | 0.00 | 62 | 1017.1 |
| 20260904154020 | 61 | 293 | 3.0 | 5.0 | 0.00 | 0.00 | 0.00 | 63 | 1017.3 |
| 20260904153520 | 60 | 300 | 3.0 | 5.0 | 0.00 | 0.00 | 0.00 | 64 | 1017.4 |
| 20260904153019 | 60 | 303 | 3.0 | 5.0 | 0.00 | 0.00 | 0.00 | 65 | 1017.5 |
| 20260904152519 | 60 | 288 | 3.0 | 5.0 | 0.00 | 0.00 | 0.00 | 65 | 1017.6 |
| 20260904152018 | 60 | 299 | 3.0 | 5.0 | 0.00 | 0.00 | 0.00 | 66 | 1017.6 |
| 20260904151517 | 60 | 302 | 3.0 | 5.0 | 0.00 | 0.00 | 0.00 | 66 | 1017.6 |
| 20260904151017 | 60 | 297 | 3.0 | 6.0 | 0.00 | 0.00 | 0.00 | 66 | 1017.6 |
| 20260904150517 | 60 | 297 | 3.0 | 6.0 | 0.00 | 0.00 | 0.00 | 66 | 1017.6 |
| 20260904150016 | 60 | 281 | 3.0 | 4.0 | 0.00 | 0.00 | 0.00 | 67 | 1017.6 |
| 20260904145515 | 61 | 281 | 3.0 | 6.0 | 0.00 | 0.00 | 0.00 | 67 | 1017.5 |
| 20260904145014 | 61 | 277 | 3.0 | 6.0 | 0.00 | 0.00 | 0.00 | 66 | 1017.6 |
| 20260904144515 | 61 | 284 | 3.0 | 6.0 | 0.00 | 0.00 | 0.00 | 66 | 1017.7 |
| 20260904144013 | 61 | 290 | 3.0 | 5.0 | 0.00 | 0.00 | 0.00 | 66 | 1017.7 |
| 20260904143514 | 61 | 305 | 2.0 | 5.0 | 0.00 | 0.00 | 0.00 | 67 | 1017.8 |
| 20260904143017 | 61 | 329 | 3.0 | 8.0 | 0.00 | 0.00 | 0.00 | 68 | 1017.8 |
| 20260904142511 | 61 | 316 | 4.0 | 8.0 | 0.00 | 0.00 | 0.00 | 69 | 1017.7 |
| 20260904142013 | 61 | 311 | 3.0 | 5.0 | 0.00 | 0.00 | 0.00 | 71 | 1017.7 |
| 20260904141511 | 61 | 315 | 3.0 | 5.0 | 0.00 | 0.00 | 0.00 | 72 | 1017.7 |
| 20260904141009 | 61 | 317 | 1.0 | 4.0 | 0.00 | 0.00 | 0.00 | 72 | 1017.8 |
| 20260904140508 | 61 | 312 | 2.0 | 5.0 | 0.00 | 0.00 | 0.00 | 71 | 1017.8 |
| 20260904140008 | 61 | 314 | 2.0 | 5.0 | 0.00 | 0.00 | 0.00 | 71 | 1017.7 |
| 20260904135507 | 62 | 325 | 2.0 | 5.0 | 0.00 | 0.00 | 0.00 | 71 | 1017.7 |
| 20260904135006 | 62 | 314 | 2.0 | 5.0 | 0.00 | 0.00 | 0.00 | 70 | 1017.7 |
| 20260904134513 | 63 | 306 | 3.0 | 5.0 | 0.00 | 0.00 | 0.00 | 68 | 1017.7 |
| 20260904134006 | 63 | 286 | 2.0 | 3.0 | 0.00 | 0.00 | 0.00 | 68 | 1017.7 |
| 20260904133507 | 62 | 297 | 1.0 | 3.0 | 0.00 | 0.00 | 0.00 | 68 | 1017.8 |
| 20260904133009 | 62 | 297 | 1.0 | 3.0 | 0.00 | 0.00 | 0.00 | 69 | 1017.8 |
| 20260904132506 | 62 | 297 | 1.0 | 3.0 | 0.00 | 0.00 | 0.00 | 71 | 1017.8 |
| 20260904132107 | 61 | 279 | 2.0 | 4.0 | 0.00 | 0.00 | 0.00 | 73 | 1017.8 |